Terug naar catalogus

STARLINK-1271

ActiefCommunicatieVLEO
NORAD 45217·PAYLOAD·🇺🇸 United States

Gelanceerd Feb 17, 2020 vanaf Cape Canaveral Space Force Station

Loading…

Volgende Passages (komende 24 uur)

TLE

VersSource: CelesTrak SupGP

Epoch: Sep 14, 2026, 14:01 UTC

1 45217C 20012AR  26257.58451389 -.00003124  00000+0 -68520-4 0  2572
2 45217  53.1519 219.1231 0002038  89.1953 300.3971 15.43483760    17

Volg STARLINK-1271 in realtime met AllMySat

Download on the App Store